Location: ????
(30.2663°N, 31.2484°E)
Time: 18:21:02
(UTC+00:00)

CZ-2C R/B - Pass Details

Date: 30 March 2023
Orbit: 784 x 869 km, 98.3° (Epoch: 04 June)

Event Time Altitude Azimuth Distance (km) Brightness Sun altitude
Exits shadow 00:59:39 35° 98° (E) 1,355 4.0 -35.3°
Maximum altitude 01:00:42 39° 72° (ENE) 1,279 3.9 -35.1°
Drops below altitude 10° 01:05:48 10° 6° (N) 2,494 5.5 -34.2°
Sets 01:08:18 0° 358° (N) 3,423 6.2 -33.7°
